Satellite: FITSAT 1
Catalog number: 38853
Epoch time:      13184.86912902
Element set:     315
Inclination:      051.6252 deg
RA of node:       351.6077 deg
Eccentricity:    0.0011722
Arg of perigee:   245.9321 deg
Mean anomaly:     114.2104 deg
Mean motion:   16.39337660 rev/day
Decay rate:   6.638326e-02 rev/day^2
Epoch rev:            4270
Checksum:              289

Satellite: TechEdSat
Catalog number: 38854
Epoch time:      13124.93253577
Element set:     290
Inclination:      051.6449 deg
RA of node:       297.0261 deg
Eccentricity:    0.0010505
Arg of perigee:   310.8629 deg
Mean anomaly:     049.0629 deg
Mean motion:   16.38844728 rev/day
Decay rate:  1.1592855e-01 rev/day^2
Epoch rev:            3329
Checksum:              325

Satellite: F 1
Catalog number: 38855
Epoch time:      13129.77714356
Element set:     287
Inclination:      051.5085 deg
RA of node:       272.4145 deg
Eccentricity:    0.0008326
Arg of perigee:   194.2908 deg
Mean anomaly:     166.5495 deg
Mean motion:   16.49710473 rev/day
Decay rate:  2.7424026e-01 rev/day^2
Epoch rev:            3394
Checksum:              332

Satellite: WeWish
Catalog number: 38856
Epoch time:      13069.98095549
Element set:     248
Inclination:      051.6166 deg
RA of node:       215.0521 deg
Eccentricity:    0.0008325
Arg of perigee:   316.0438 deg
Mean anomaly:     044.8765 deg
Mean motion:   16.41348316 rev/day
Decay rate:  1.6701328e-01 rev/day^2
Epoch rev:            2458
Checksum:              318

Satellite: OSSI-1
Catalog number: 39131
Epoch time:      13188.41684431
Element set:       8
Inclination:      064.8841 deg
RA of node:       114.8425 deg
Eccentricity:    0.0051126
Arg of perigee:   026.6892 deg
Mean anomaly:     350.0589 deg
Mean motion:   16.22925119 rev/day
Decay rate:   1.502874e-02 rev/day^2
Epoch rev:            1237
Checksum:              296

Satellite: BEESAT-3
Catalog number: 39134
Epoch time:      13220.81541338
Element set:     274
Inclination:      064.8775 deg
RA of node:       043.2545 deg
Eccentricity:    0.0007414
Arg of perigee:   201.5930 deg
Mean anomaly:     254.1549 deg
Mean motion:   15.00673904 rev/day
Decay rate:      2.993e-05 rev/day^2
Epoch rev:            1672
Checksum:              286

Satellite: BEESAT-2
Catalog number: 39136
Epoch time:      13220.67943772
Element set:     255
Inclination:      064.8781 deg
RA of node:       043.6927 deg
Eccentricity:    0.0007447
Arg of perigee:   202.9125 deg
Mean anomaly:     229.8030 deg
Mean motion:   15.00608951 rev/day
Decay rate:      2.591e-05 rev/day^2
Epoch rev:            1670
Checksum:              296



Read previous mail | Read next mail


 13.12.2025 17:04:04lGo back Go up